Weather in Lopatki

Russia / Kurgan Oblast     54°59′11″N   66°37′12″E
temp.,
°C
wind,
m/s
gust,
m/s
humid.,
%
clouds,
%
prec.,
mm/h
press.,
hPa
HPBL,
m
26 february, fri
fri2623:00−25wnw339888 0.1 102971
02:00−26w339897 0.1 103051
05:00−29wsw339989 0.1 103120
08:00−29wsw3310091 0.0 103134
11:00−25sw349895 0.0 1032155
14:00−22sw359584 0.0 1032252
17:00−24ssw349662 0.0 103276
20:00−27ssw45950 0.0 103275
27 february, sat
sat2723:00−29ssw44960 0.0 103170
02:00−30s34980 0.0 103161
05:00−31s449832 0.0 103071
08:00−31sse479852 0.0 1029100
11:00−26sse479526 0.0 1028225
14:00−22se689514 0.0 1025254
17:00−18se7119456 0.0 1022417
20:00−14se81494100 0.4 1020593
28 february, sun
sun2823:00−12sse71294100 1.3 1017701
02:00−12se71293100 0.6 1015597
05:00−12se71293100 0.9 1012466
08:00−12se71194100 0.3 1010432
11:00−10ese61094100 0.8 1009431
14:00−8ese5893100 0.4 1007426
17:00−8e5895100 0.9 1005349
20:00−9ene5895100 0.5 1005278
1 march, mon
mon123:00−10ne4795100 0.9 1007239
02:00−13ne479586 0.2 1007195
05:00−14ne479592 0.3 1009215
08:00−15nne4796100 0.3 1009240
11:00−15nne4794100 0.5 1011286
14:00−14n4693100 0.0 1013351
17:00−15nnw3693100 0.1 1015350
20:00−17nw339699 0.0 101738
2 march, tue
tue223:00−17nw239697 0.1 101955
02:00−18wnw239797 0.1 101937
05:00−20w2310083 0.1 101920
08:00−22w239980 0.0 101921
11:00−19wsw349540 0.0 1018180
14:00−16sw469316 0.0 1017265
17:00−17sw369538 0.0 1016138
20:00−20ssw48960 0.0 1016120